Location: Assche-ter-Heiden
(50.9174°N, 4.1574°E)
Time: 13:13:37
(UTC+00:00)

NOSS 3-4 (C) - Pass Details

Date: 20 January 2020
Orbit: 905 x 1307 km, 63.4° (Epoch: 06 February)

Event Time Altitude Azimuth Distance (km) Brightness Sun altitude
Rises 05:54:26 0° 202° (SSW) 3,519 6.3 -15.5°
Reaches altitude 10° 05:56:56 10° 197° (SSW) 2,593 5.7 -15.1°
Maximum altitude 06:02:42 51° 123° (ESE) 1,169 4.4 -14.3°
Drops below altitude 10° 06:08:51 10° 50° (NE) 2,764 6.3 -13.3°
Sets 06:11:37 0° 46° (NE) 3,773 7.0 -12.9°
